Eastover, SC

5:55 PM EDT on April 26, 2017 (GMT -0400)
McEntire Angs

Weather History for KMMT - February, 2013

Change the Weather History Date:

Friday, February 22, 2013

  Actual Average Record
Temperature  
Mean Temperature 42 °F -  
Max Temperature 46 °F 58 °F 79 °F (2011)
Min Temperature 38 °F 39 °F 26 °F (1999)
Degree Days  
Heating Degree Days 23    
Moisture  
Dew Point 37 °F    
Average Humidity 91    
Maximum Humidity 100    
Minimum Humidity 46    
Precipitation  
Precipitation 0.26 in - - ()
Sea Level Pressure  
Sea Level Pressure 30.17 in    
Wind  
Wind Speed 7 mph (NE)    
Max Wind Speed 13 mph    
Max Gust Speed 20 mph    
Visibility 5 miles    
Events Rain    
Averages and records for this station are not official NWS values.
T = Trace of Precipitation, MM = Missing Value Source: NWS Daily Summary

Daily Weather History Graph

Daily Weather History Graph

Search for Another Location

Airport or City:

Trip Planner

Search our weather history database for the weather conditions in past years. The results will help you decide how hot, cold, wet, or windy it might be!

Date:

Astronomy

Feb. 22, 2013 Rise Set
Actual Time 6:59 AM EST 6:13 PM EST
Civil Twilight 6:34 AM EST 6:39 PM EST
Nautical Twilight 6:05 AM EST 7:08 PM EST
Astronomical Twilight 5:36 AM EST 7:37 PM EST
Moon 3:29 PM EST (2/22) 4:38 AM EST (2/22)
Length of Visible Light 12h 04m
Length of Day
11h 13m
Waxing Gibbous, 90% of the Moon is Illuminated
Feb 22
Waxing Gibbous
Feb 25
Full
Mar 4
Last Quarter
Mar 11
New
Mar 19
First Quarter

Hourly Weather History & Observations

Time (EST) Temp. Windchill Dew Point Humidity Pressure Visibility Wind Dir Wind Speed Gust Speed Precip Events Conditions
3:58 AM 46.2 °F 42.2 °F 28.2 °F 50% 30.23 in 10.0 mi NE 8.1 mph 18.4 mph N/A   Overcast
4:58 AM 45.9 °F 41.7 °F 26.8 °F 47% 30.22 in 10.0 mi ENE 8.1 mph - N/A   Overcast
5:58 AM 46.0 °F 40.6 °F 27.5 °F 48% 30.21 in 10.0 mi ENE 11.5 mph - N/A   Overcast
6:18 AM 46.4 °F 40.7 °F 26.6 °F 46% 30.20 in 7.0 mi ENE 12.7 mph 19.6 mph N/A Rain Light Rain
6:58 AM 41.7 °F 35.6 °F 31.8 °F 68% 30.20 in 3.0 mi East 10.4 mph - 0.02 in Rain Light Rain
7:58 AM 39.4 °F 34.5 °F 35.1 °F 84% 30.22 in 5.0 mi East 6.9 mph - 0.08 in Rain Light Rain
8:58 AM 39.2 °F 32.0 °F 36.3 °F 89% 30.22 in 4.0 mi East 11.5 mph - 0.08 in Rain Light Rain
9:21 AM 39.2 °F 31.6 °F 35.6 °F 87% 30.20 in 7.0 mi East 12.7 mph 19.6 mph N/A   Overcast
9:27 AM 39.2 °F 32.5 °F 35.6 °F 87% 30.19 in 7.0 mi East 10.4 mph 19.6 mph N/A   Light Drizzle
9:37 AM 39.2 °F 32.5 °F 35.6 °F 87% 30.20 in 10.0 mi East 10.4 mph - N/A   Overcast
9:58 AM 39.9 °F 32.5 °F 36.1 °F 86% 30.22 in 10.0 mi ENE 12.7 mph - 0.00 in   Overcast
10:33 AM 39.2 °F 34.2 °F 35.6 °F 87% 30.22 in 7.0 mi East 6.9 mph - N/A Rain Light Rain
10:46 AM 39.2 °F 33.6 °F 37.4 °F 93% 30.21 in 7.0 mi ENE 8.1 mph - N/A   Overcast
10:58 AM 40.1 °F 35.3 °F 36.5 °F 87% 30.23 in 7.0 mi ENE 6.9 mph - 0.00 in   Overcast
11:58 AM 39.9 °F 35.8 °F 36.7 °F 88% 30.21 in 10.0 mi ENE 5.8 mph - N/A   Overcast
12:13 PM 39.2 °F 34.2 °F 37.4 °F 93% 30.21 in 10.0 mi NE 6.9 mph - N/A   Overcast
12:35 PM 39.2 °F 37.0 °F 37.4 °F 93% 30.21 in 5.0 mi Variable 3.5 mph - N/A Rain Light Rain
12:58 PM 39.4 °F 36.1 °F 37.0 °F 91% 30.18 in 4.0 mi NE 4.6 mph - 0.01 in Rain Light Rain
1:06 PM 39.2 °F 34.2 °F 37.4 °F 93% 30.18 in 4.0 mi NE 6.9 mph - N/A Rain Light Rain
1:19 PM 39.2 °F 35.0 °F 37.4 °F 93% 30.18 in 3.0 mi NE 5.8 mph - N/A Rain Light Rain
1:30 PM 39.2 °F 33.6 °F 37.4 °F 93% 30.16 in 5.0 mi NE 8.1 mph - N/A   Light Drizzle
1:43 PM 39.2 °F 35.0 °F 37.4 °F 93% 30.17 in 2.0 mi Variable 5.8 mph - N/A Rain Light Rain
1:53 PM 39.2 °F 35.9 °F 37.4 °F 93% 30.16 in - Variable 4.6 mph - N/A   Overcast
1:58 PM 39.4 °F 35.2 °F 37.6 °F 93% 30.17 in 5.0 mi NE 5.8 mph - 0.01 in   Light Drizzle
2:07 PM 39.2 °F - 37.4 °F 93% 30.16 in 5.0 mi Variable 1.2 mph - N/A   Light Drizzle
2:18 PM 39.2 °F 35.9 °F 37.4 °F 93% 30.15 in 5.0 mi Variable 4.6 mph - N/A   Overcast
2:33 PM 39.2 °F 35.9 °F 37.4 °F 93% 30.16 in 4.0 mi NNE 4.6 mph - N/A   Light Drizzle
2:43 PM 39.2 °F 35.9 °F 37.4 °F 93% 30.16 in 1.8 mi NNE 4.6 mph - N/A Rain Light Rain
2:51 PM 39.2 °F 35.0 °F 37.4 °F 93% 30.15 in 2.0 mi Variable 5.8 mph - N/A Rain Light Rain
2:58 PM 39.9 °F 34.5 °F 38.3 °F 94% 30.16 in 3.0 mi NNE 8.1 mph - 0.01 in   Light Drizzle
3:35 PM 39.2 °F 35.9 °F 39.2 °F 100% 30.15 in 3.0 mi NE 4.6 mph - N/A   Overcast
3:58 PM 39.7 °F 36.5 °F 38.3 °F 95% 30.17 in 3.0 mi North 4.6 mph - 0.00 in Rain Light Rain
4:33 PM 39.2 °F 37.0 °F 37.4 °F 93% 30.15 in 2.5 mi NNE 3.5 mph - N/A   Light Drizzle
4:46 PM 39.2 °F 34.2 °F 39.2 °F 100% 30.14 in 2.5 mi NE 6.9 mph - N/A   Light Drizzle
4:58 PM 39.4 °F 35.2 °F 38.3 °F 96% 30.15 in 3.0 mi NE 5.8 mph - 0.04 in   Light Drizzle
5:03 PM 39.2 °F 35.9 °F 39.2 °F 100% 30.14 in 3.0 mi NNE 4.6 mph - N/A   Light Drizzle
5:37 PM 39.2 °F 34.2 °F 39.2 °F 100% 30.13 in 8.0 mi NNE 6.9 mph - N/A   Overcast
5:55 PM 39.2 °F 37.0 °F 39.2 °F 100% 30.15 in 5.0 mi North 3.5 mph - N/A   Overcast
6:00 PM 39.2 °F 37.0 °F 39.2 °F 100% 30.14 in 10.0 mi North 3.5 mph - N/A   Overcast
6:31 PM 39.2 °F 34.2 °F 37.4 °F 93% 30.14 in 3.0 mi NE 6.9 mph - N/A   Overcast
6:56 PM 38.8 °F 33.2 °F 37.9 °F 97% 30.14 in 5.0 mi NNE 8.1 mph - N/A   Overcast
7:58 PM 39.2 °F 34.2 °F 37.4 °F 93% 30.14 in 3.0 mi NE 6.9 mph - N/A   Light Drizzle
8:08 PM 39.2 °F 33.6 °F 37.4 °F 93% 30.13 in 6.0 mi NE 8.1 mph - N/A   Overcast
8:58 PM 38.8 °F 36.5 °F 38.3 °F 98% 30.17 in 3.0 mi NNE 3.5 mph - 0.00 in   Overcast
9:13 PM 39.2 °F 35.0 °F 39.2 °F 100% 30.15 in 4.0 mi NNE 5.8 mph - N/A   Overcast
9:17 PM 39.2 °F 35.0 °F 39.2 °F 100% 30.14 in 3.0 mi NNE 5.8 mph - N/A   Light Drizzle
9:27 PM 39.2 °F 37.0 °F 39.2 °F 100% 30.14 in 3.0 mi North 3.5 mph - N/A   Overcast
9:32 PM 39.2 °F 37.0 °F 39.2 °F 100% 30.14 in 3.0 mi North 3.5 mph - N/A   Overcast
9:37 PM 39.2 °F 35.9 °F 39.2 °F 100% 30.14 in 2.5 mi North 4.6 mph - N/A   Overcast
9:47 PM 39.2 °F 37.0 °F 39.2 °F 100% 30.15 in 3.0 mi NNE 3.5 mph - N/A   Overcast
9:58 PM 38.8 °F 36.5 °F 38.7 °F 99% 30.16 in 2.5 mi NE 3.5 mph - 0.00 in   Overcast
10:38 PM 39.2 °F 34.2 °F 39.2 °F 100% 30.14 in 3.0 mi North 6.9 mph - N/A   Overcast
10:48 PM 39.2 °F 35.9 °F 39.2 °F 100% 30.14 in 2.5 mi North 4.6 mph - N/A   Overcast
10:58 PM 38.8 °F 36.5 °F 38.7 °F 99% 30.14 in 2.0 mi Variable 3.5 mph - N/A   Overcast
11:58 PM 38.3 °F 34.8 °F 37.9 °F 99% 30.12 in 3.0 mi NNE 4.6 mph - 0.01 in   Overcast